Year,Month,Day,Hour,Minute,Value (Times are PST for temperature in C)
2020,12,01,08,18,2.10
2020,12,01,08,19,2.10
2020,12,01,08,20,2.10
2020,12,01,08,21,2.10
2020,12,01,08,22,2.10
2020,12,01,08,23,2.10
2020,12,01,08,24,2.10
2020,12,01,08,25,2.10
2020,12,01,08,26,2.10
2020,12,01,08,27,2.10
2020,12,01,08,28,2.10
2020,12,01,08,29,2.10
2020,12,01,08,30,2.20
2020,12,01,08,31,2.20
2020,12,01,08,32,2.20
2020,12,01,08,33,2.20
2020,12,01,08,34,2.20
2020,12,01,08,35,2.20
2020,12,01,08,36,2.30
2020,12,01,08,37,2.30
2020,12,01,08,38,2.30
2020,12,01,08,39,2.30
2020,12,01,08,40,2.40
2020,12,01,08,41,2.40
2020,12,01,08,42,2.50
2020,12,01,08,43,2.50
2020,12,01,08,44,2.50
2020,12,01,08,45,2.60
2020,12,01,08,46,2.60
2020,12,01,08,47,2.60
2020,12,01,08,48,2.70
2020,12,01,08,49,2.70
2020,12,01,08,50,2.70
2020,12,01,08,51,2.80
2020,12,01,08,52,2.80
2020,12,01,08,53,2.80
2020,12,01,08,54,2.90
2020,12,01,08,55,2.90
2020,12,01,08,56,2.90
2020,12,01,08,57,2.90
2020,12,01,08,58,3.00
2020,12,01,08,59,3.00
2020,12,01,09,00,3.10
2020,12,01,09,01,3.10
2020,12,01,09,02,3.10
2020,12,01,09,03,3.10
2020,12,01,09,04,3.10
2020,12,01,09,05,3.20
2020,12,01,09,06,3.20
2020,12,01,09,07,3.20
2020,12,01,09,08,3.20
2020,12,01,09,09,3.30
2020,12,01,09,10,3.30
2020,12,01,09,11,3.30
2020,12,01,09,12,3.30
2020,12,01,09,13,3.30
2020,12,01,09,14,3.30
2020,12,01,09,15,3.40
2020,12,01,09,16,3.40
2020,12,01,09,17,3.40
2020,12,01,09,18,3.40
2020,12,01,09,19,3.40
2020,12,01,09,20,3.40
2020,12,01,09,21,3.50
2020,12,01,09,22,3.50
2020,12,01,09,23,3.50
2020,12,01,09,24,3.60
2020,12,01,09,25,3.60
2020,12,01,09,26,3.60
2020,12,01,09,27,3.60
2020,12,01,09,28,3.70
2020,12,01,09,29,3.70
2020,12,01,09,30,3.70
2020,12,01,09,31,3.70
2020,12,01,09,32,3.80
2020,12,01,09,33,3.80
2020,12,01,09,34,3.80
2020,12,01,09,35,3.80
2020,12,01,09,36,3.90
2020,12,01,09,37,3.90
2020,12,01,09,38,4.00
2020,12,01,09,39,4.00
2020,12,01,09,40,4.10
2020,12,01,09,41,4.10
2020,12,01,09,42,4.10
2020,12,01,09,43,4.10
2020,12,01,09,44,4.10
2020,12,01,09,45,4.10
2020,12,01,09,46,4.20
2020,12,01,09,47,4.20
2020,12,01,09,48,4.20
2020,12,01,09,49,4.30
2020,12,01,09,50,4.30
2020,12,01,09,51,4.30
2020,12,01,09,52,4.30
2020,12,01,09,53,4.30
2020,12,01,09,54,4.30
2020,12,01,09,55,4.30
2020,12,01,09,56,4.40
2020,12,01,09,57,4.40
2020,12,01,09,58,4.50
2020,12,01,09,59,4.50
2020,12,01,10,00,4.50
2020,12,01,10,01,4.60
2020,12,01,10,02,4.60
2020,12,01,10,03,4.60
2020,12,01,10,04,4.60
2020,12,01,10,05,4.60
2020,12,01,10,06,4.70
2020,12,01,10,07,4.70
2020,12,01,10,08,4.70
2020,12,01,10,09,4.70
2020,12,01,10,10,4.70
2020,12,01,10,11,4.80
2020,12,01,10,12,4.80
2020,12,01,10,13,4.80
2020,12,01,10,14,4.80
2020,12,01,10,15,4.80
2020,12,01,10,16,4.80
2020,12,01,10,17,4.90
2020,12,01,10,18,4.90
2020,12,01,10,19,4.90
2020,12,01,10,20,4.90
2020,12,01,10,21,4.90
2020,12,01,10,22,4.90
2020,12,01,10,23,4.90
2020,12,01,10,24,5.00
2020,12,01,10,25,5.10
2020,12,01,10,26,5.10
2020,12,01,10,27,5.20
2020,12,01,10,28,5.10
2020,12,01,10,29,5.10
2020,12,01,10,30,5.10
2020,12,01,10,31,5.10
2020,12,01,10,32,5.10
2020,12,01,10,33,5.10
2020,12,01,10,34,5.10
2020,12,01,10,35,5.10
2020,12,01,10,36,5.10
2020,12,01,10,37,5.00
2020,12,01,10,38,5.00
2020,12,01,10,39,5.00
2020,12,01,10,40,5.00
2020,12,01,10,41,5.00
2020,12,01,10,42,5.10
2020,12,01,10,43,5.10
2020,12,01,10,44,5.10
2020,12,01,10,45,5.10
2020,12,01,10,46,5.10
2020,12,01,10,47,5.20
2020,12,01,10,48,5.20
2020,12,01,10,49,5.20
2020,12,01,10,50,5.20
2020,12,01,10,51,5.30
2020,12,01,10,52,5.30
2020,12,01,10,53,5.30
2020,12,01,10,54,5.30
2020,12,01,10,55,5.20
2020,12,01,10,56,5.20
2020,12,01,10,57,5.20
2020,12,01,10,58,5.20
2020,12,01,10,59,5.20
2020,12,01,11,00,5.30
2020,12,01,11,01,5.30
2020,12,01,11,02,5.30
2020,12,01,11,03,5.30
2020,12,01,11,04,5.30
2020,12,01,11,05,5.30
2020,12,01,11,06,5.30
2020,12,01,11,07,5.30
2020,12,01,11,08,5.30
2020,12,01,11,09,5.40
2020,12,01,11,10,5.40
2020,12,01,11,11,5.40
2020,12,01,11,12,5.50
2020,12,01,11,13,5.50
2020,12,01,11,14,5.50
2020,12,01,11,15,5.50
2020,12,01,11,16,5.60
2020,12,01,11,17,5.60
2020,12,01,11,18,5.60
2020,12,01,11,19,5.60
2020,12,01,11,20,5.60
2020,12,01,11,21,5.70
2020,12,01,11,22,5.70
2020,12,01,11,23,5.70
2020,12,01,11,24,5.70
2020,12,01,11,25,5.70
2020,12,01,11,26,5.70
2020,12,01,11,27,5.80
2020,12,01,11,28,5.80
2020,12,01,11,29,5.80
2020,12,01,11,30,5.80
2020,12,01,11,31,5.80
2020,12,01,11,32,5.80
2020,12,01,11,33,5.80
2020,12,01,11,34,5.80
2020,12,01,11,35,5.80
2020,12,01,11,36,5.80
2020,12,01,11,37,5.80
2020,12,01,11,38,5.80
2020,12,01,11,39,5.80
2020,12,01,11,40,5.80
2020,12,01,11,41,5.80
2020,12,01,11,42,5.80
2020,12,01,11,43,5.80
2020,12,01,11,44,5.70
2020,12,01,11,45,5.70
2020,12,01,11,46,5.80
2020,12,01,11,47,5.70
2020,12,01,11,48,5.70
2020,12,01,11,49,5.70
2020,12,01,11,50,5.70
2020,12,01,11,51,5.70
2020,12,01,11,52,5.70
2020,12,01,11,53,5.70
2020,12,01,11,54,5.60
2020,12,01,11,55,5.60
2020,12,01,11,56,5.60
2020,12,01,11,57,5.60
2020,12,01,11,58,5.60
2020,12,01,11,59,5.60
2020,12,01,12,00,5.60
2020,12,01,12,01,5.60
2020,12,01,12,02,5.60
2020,12,01,12,03,5.60
2020,12,01,12,04,5.60
2020,12,01,12,05,5.60
2020,12,01,12,06,5.60
2020,12,01,12,07,5.50
2020,12,01,12,08,5.50
2020,12,01,12,09,5.60
2020,12,01,12,10,5.60
2020,12,01,12,11,5.60
2020,12,01,12,12,5.60
2020,12,01,12,13,5.60
2020,12,01,12,14,5.60
2020,12,01,12,15,5.60
2020,12,01,12,16,5.60
2020,12,01,12,17,5.60
2020,12,01,12,18,5.70
2020,12,01,12,19,5.70
2020,12,01,12,20,5.70
2020,12,01,12,21,5.70
2020,12,01,12,22,5.70
2020,12,01,12,23,5.70
2020,12,01,12,24,5.70
2020,12,01,12,25,5.70
2020,12,01,12,26,5.70
2020,12,01,12,27,5.70
2020,12,01,12,28,5.70
2020,12,01,12,29,5.80
2020,12,01,12,30,5.80
2020,12,01,12,31,5.80
2020,12,01,12,32,5.80
2020,12,01,12,33,5.80
2020,12,01,12,34,5.90
2020,12,01,12,35,5.90
2020,12,01,12,36,5.90
2020,12,01,12,37,5.90
2020,12,01,12,38,5.90
2020,12,01,12,39,5.90
2020,12,01,12,40,5.90
2020,12,01,12,41,5.90
2020,12,01,12,42,5.90
2020,12,01,12,43,5.90
2020,12,01,12,44,5.90
2020,12,01,12,45,5.80
2020,12,01,12,46,5.90
2020,12,01,12,47,5.90
2020,12,01,12,48,5.90
2020,12,01,12,49,5.90
2020,12,01,12,50,6.00
2020,12,01,12,51,6.00
2020,12,01,12,52,6.00
2020,12,01,12,53,5.90
2020,12,01,12,54,5.90
2020,12,01,12,55,6.00
2020,12,01,12,56,6.00
2020,12,01,12,57,6.00
2020,12,01,12,58,6.10
2020,12,01,12,59,6.10
2020,12,01,13,00,6.20
2020,12,01,13,01,6.30
2020,12,01,13,02,6.30
2020,12,01,13,03,6.30
2020,12,01,13,04,6.30
2020,12,01,13,05,6.40
2020,12,01,13,06,6.40
2020,12,01,13,07,6.40
2020,12,01,13,08,6.40
2020,12,01,13,09,6.40
2020,12,01,13,10,6.30
2020,12,01,13,11,6.30
2020,12,01,13,12,6.30
2020,12,01,13,13,6.20
2020,12,01,13,14,6.20
2020,12,01,13,15,6.20
2020,12,01,13,16,6.20
2020,12,01,13,17,6.20
2020,12,01,13,18,6.20
2020,12,01,13,19,6.10
2020,12,01,13,20,6.10
2020,12,01,13,21,6.10
2020,12,01,13,22,6.10
2020,12,01,13,23,6.00
2020,12,01,13,24,6.00
2020,12,01,13,25,6.00
2020,12,01,13,26,6.00
2020,12,01,13,27,6.00
2020,12,01,13,28,6.00
2020,12,01,13,29,6.00
2020,12,01,13,30,6.10
2020,12,01,13,31,6.10
2020,12,01,13,32,6.20
2020,12,01,13,33,6.20
2020,12,01,13,34,6.20
2020,12,01,13,35,6.20
2020,12,01,13,36,6.30
2020,12,01,13,37,6.30
2020,12,01,13,38,6.20
2020,12,01,13,39,6.20
2020,12,01,13,40,6.20
2020,12,01,13,41,6.20
2020,12,01,13,42,6.20
2020,12,01,13,43,6.10
2020,12,01,13,44,6.10
2020,12,01,13,45,6.10
2020,12,01,13,46,6.20
2020,12,01,13,47,6.10
2020,12,01,13,48,6.20
2020,12,01,13,49,6.20
2020,12,01,13,50,6.10
2020,12,01,13,51,6.10
2020,12,01,13,52,6.10
2020,12,01,13,53,6.10
2020,12,01,13,54,6.10
2020,12,01,13,55,6.10
2020,12,01,13,56,6.10
2020,12,01,13,57,6.10
2020,12,01,13,58,6.20
2020,12,01,13,59,6.10
2020,12,01,14,00,6.10
2020,12,01,14,01,6.10
2020,12,01,14,02,6.20
2020,12,01,14,03,6.10
2020,12,01,14,04,6.10
2020,12,01,14,05,6.10
2020,12,01,14,06,6.10
2020,12,01,14,07,6.10
2020,12,01,14,08,6.10
2020,12,01,14,09,6.10
2020,12,01,14,10,6.10
2020,12,01,14,11,6.10
2020,12,01,14,12,6.10
2020,12,01,14,13,6.10
2020,12,01,14,14,6.10
2020,12,01,14,15,6.10
2020,12,01,14,16,6.10
2020,12,01,14,17,6.10
2020,12,01,14,18,6.10
2020,12,01,14,19,6.10
2020,12,01,14,20,6.10
2020,12,01,14,21,6.10
2020,12,01,14,22,6.10
2020,12,01,14,23,6.10
2020,12,01,14,24,6.10
2020,12,01,14,25,6.10
2020,12,01,14,26,6.10
2020,12,01,14,27,6.10
2020,12,01,14,28,6.00
2020,12,01,14,29,6.00
2020,12,01,14,30,6.00
2020,12,01,14,31,6.00
2020,12,01,14,32,5.90
2020,12,01,14,33,5.90
2020,12,01,14,34,5.90
2020,12,01,14,35,5.90
2020,12,01,14,36,5.90
2020,12,01,14,37,5.90
2020,12,01,14,38,5.90
2020,12,01,14,39,5.90
2020,12,01,14,40,5.90
2020,12,01,14,41,5.90
2020,12,01,14,42,5.90
2020,12,01,14,43,5.90
2020,12,01,14,44,5.90
2020,12,01,14,45,5.90
2020,12,01,14,46,5.90
2020,12,01,14,47,5.90
2020,12,01,14,48,5.90
2020,12,01,14,49,5.80
2020,12,01,14,50,5.80
2020,12,01,14,51,5.80
2020,12,01,14,52,5.80
2020,12,01,14,53,5.80
2020,12,01,14,54,5.80
2020,12,01,14,55,5.80
2020,12,01,14,56,5.80
2020,12,01,14,57,5.80
2020,12,01,14,58,5.80
2020,12,01,14,59,5.80
2020,12,01,15,00,5.80
2020,12,01,15,01,5.80
2020,12,01,15,02,5.70
2020,12,01,15,03,5.70
2020,12,01,15,04,5.70
2020,12,01,15,05,5.70
2020,12,01,15,06,5.70
2020,12,01,15,07,5.70
2020,12,01,15,08,5.70
2020,12,01,15,09,5.70
2020,12,01,15,10,5.70
2020,12,01,15,11,5.70
2020,12,01,15,12,5.70
2020,12,01,15,13,5.60
2020,12,01,15,14,5.60
2020,12,01,15,15,5.60
2020,12,01,15,16,5.60
2020,12,01,15,17,5.60
2020,12,01,15,18,5.60
2020,12,01,15,19,5.60
2020,12,01,15,20,5.50
2020,12,01,15,21,5.50
2020,12,01,15,22,5.50
2020,12,01,15,23,5.50
2020,12,01,15,24,5.40
2020,12,01,15,25,5.40
2020,12,01,15,26,5.40
2020,12,01,15,27,5.40
2020,12,01,15,28,5.30
2020,12,01,15,29,5.30
2020,12,01,15,30,5.30
2020,12,01,15,31,5.30
2020,12,01,15,32,5.30
2020,12,01,15,33,5.30
2020,12,01,15,34,5.30
2020,12,01,15,35,5.30
2020,12,01,15,36,5.30
2020,12,01,15,37,5.30
2020,12,01,15,38,5.30
2020,12,01,15,39,5.20
2020,12,01,15,40,5.20
2020,12,01,15,41,5.20
2020,12,01,15,42,5.20
2020,12,01,15,43,5.20
2020,12,01,15,44,5.20
2020,12,01,15,45,5.20
2020,12,01,15,46,5.20
2020,12,01,15,47,5.20
2020,12,01,15,48,5.20
2020,12,01,15,49,5.20
2020,12,01,15,50,5.20
2020,12,01,15,51,5.20
2020,12,01,15,52,5.20
2020,12,01,15,53,5.20
2020,12,01,15,54,5.20
2020,12,01,15,55,5.20
2020,12,01,15,56,5.10
2020,12,01,15,57,5.10
2020,12,01,15,58,5.10
2020,12,01,15,59,5.10
2020,12,01,16,00,5.10
2020,12,01,16,01,5.10
2020,12,01,16,02,5.10
2020,12,01,16,03,5.10
2020,12,01,16,04,5.10
2020,12,01,16,05,5.10
2020,12,01,16,06,5.10
